This demonstration page uses our WeatherBlox Daily Observations layout. Learn more.

Left ArrowRight Arrow

38.20091, -84.87328

Hourly Observations for September 24, 2021

Temp ( °F °C ) Dew Point ( °F °C ) Humidity (%) Winds ( mph kmh ) Pressure ( in mb ) Visibility ( mi km ) Precip ( " mm )
12:53 am 00:53 Clear 50 10 46 7.8 86 86 WSW 3 6 30.05 1018 10 16 0.00 0.00
1:53 am 01:53 Clear 50 10 46 7.8 86 86 Calm 30.06 1018 10 16 0.00 0.00
2:53 am 02:53 Clear 48 8.9 45 7.2 89 89 SW 6 9 30.06 1018 10 16 0.00 0.00
3:53 am 03:53 Clear 48 8.9 45 7.2 89 89 SW 6 9 30.07 1018 10 16 0.00 0.00
4:53 am 04:53 Clear 48 8.9 45 7.2 89 89 Calm 30.08 1019 10 16 0.00 0.00
5:53 am 05:53 Clear 49 9.4 45 7.2 86 86 SW 3 6 30.09 1019 10 16 0.00 0.00
6:53 am 06:53 Clear 48 8.9 45 7.2 89 89 Calm 30.11 1020 10 16 0.00 0.00
7:53 am 07:53 Sunny 46 7.8 44 6.7 93 93 S 3 6 30.13 1020 10 16 0.00 0.00
8:53 am 08:53 Sunny 53 11.7 49 9.4 86 86 SW 3 6 30.13 1020 10 16 0.00 0.00
9:53 am 09:53 Sunny 58 14.4 49 9.4 72 72 SW 7 11 30.14 1021 10 16 0.00 0.00
10:53 am 10:53 Sunny 64 17.8 52 11.1 65 65 SW 6 9 30.15 1021 10 16 0.00 0.00
11:53 am 11:53 Sunny 68 20 50 10 53 53 SSW 6 9 30.14 1021 10 16 0.00 0.00
12:53 pm 12:53 Sunny 71 21.7 46 7.8 41 41 WSW 7 11 30.13 1020 10 16 0.00 0.00
1:53 pm 13:53 Sunny 73 22.8 47 8.3 40 40 SW 9 15 30.11 1020 10 16 0.00 0.00
2:53 pm 14:53 Sunny 72 22.2 47 8.3 41 41 WSW 7 11 30.09 1019 10 16 0.00 0.00
3:53 pm 15:53 Sunny 73 22.8 48 8.9 41 41 VRB 3 6 30.08 1019 10 16 0.00 0.00
4:53 pm 16:53 Sunny 73 22.8 48 8.9 41 41 Calm 30.06 1018 10 16 0.00 0.00
5:53 pm 17:53 Sunny 72 22.2 49 9.4 44 44 SSW 7 11 30.06 1018 10 16 0.00 0.00
6:53 pm 18:53 Sunny 69 20.6 50 10 51 51 SW 6 9 30.06 1018 10 16 0.00 0.00
7:53 pm 19:53 Clear 60 15.6 54 12.2 80 80 SW 3 6 30.07 1018 10 16 0.00 0.00
8:53 pm 20:53 Clear 57 13.9 53 11.7 87 87 Calm 30.07 1018 10 16 0.00 0.00
9:53 pm 21:53 Clear 55 12.8 52 11.1 90 90 Calm 30.07 1018 10 16 0.00 0.00
10:53 pm 22:53 Clear 55 12.8 52 11.1 90 90 Calm 30.07 1018 10 16 0.00 0.00
11:53 pm 23:53 Clear 54 12.2 52 11.1 93 93 Calm 30.06 1018 10 16 0.00 0.00

Powered by AerisWeather